Back to catalog

DELTA 1 DEB

AliveLEO
NORAD 7040·DEBRIS·🇺🇸 United States

Launched Nov 6, 1973 from Vandenberg Space Force Base

Loading…

Next Passes (next 24 hours)

TLE

FreshSource: Space-Track

Epoch: Sep 14, 2026, 13:42 UTC

1 07040U 73086AG  26257.57088641  .00000070  00000-0  48912-3 0  9990
2 07040 102.5337 119.1159 0193989 312.5187  75.9803 12.82497124468692

Track DELTA 1 DEB in real time with AllMySat

Download on the App Store